Other Public Products
Issued by NWS Grand Forks, ND

Home | Current Version | Previous Version | Graphics & Text | Print | Product List | Glossary On
Versions: 1 2 3 4 5 6 7 8 9 10 11 12 13 14 15 16 17 18 19 20 21 22 23 24 25 26 27 28 29 30 31 32 33 34 35 36 37 38 39 40 41 42 43 44 45 46 47 48 49 50
000
FPUS83 KFGF 271610
OPUFGF
PRAIRIE TO PINES WEATHER ROUNDUP
NATIONAL WEATHER SERVICE EASTERN NORTH DAKOTA/GRAND FORKS ND
1000 AM CST FRI FEB 27 2015

 **SATELLITE DATA USED TO AUGMENT SKY COVER AT AUTOMATED STATIONS**
 *****  WEATHER ACROSS EASTERN NORTH DAKOTA  *****

CITY           SKY/WX    TMP DP  RH WIND       PRES   REMARKS
GRAND FORKS    MOSUNNY    2  -6  69 SW6       30.45R WCI  -9
GRAND FORKS AF SUNNY      6  -7  55 NW8       30.43S WCI  -7
GRAND CITY NWS   N/A      3 N/A N/A SW6         N/A  WCI  -8
BUXTON         NOT AVBL
DEVILS LAKE    SUNNY    N/A N/A N/A MISG        N/A
FARGO          SUNNY      0  -9  65 SW7       30.49S WCI -13
WAHPETON ARPT  SUNNY      1  -8  66 W10       30.51F WCI -14
$$

 *****  WEATHER ACROSS CENTRAL AND WESTERN NORTH DAKOTA  *****

CITY           SKY/WX    TMP DP  RH WIND       PRES   REMARKS
JAMESTOWN      SUNNY      1  -7  68 SW8       30.40F WCI -13
BISMARCK       SUNNY      1  -5  75 VRB5      30.39F WCI  -9
MINOT          SUNNY      2  -7  66 SW12      30.30F WCI -15
MINOT AFB      SUNNY     -1  -7  74 SW6       30.30F WCI -12
GARRISON         N/A     -3  -6  87 S3        30.32S
WILLISTON      SUNNY      2  -5  72 S6        30.25F WCI  -9
DICKINSON      SUNNY      9  -1  64 S17       30.19F WCI  -9
HETTINGER      SUNNY      8   1  73 S10       30.23F WCI  -6
$$

 *****  OTHER OBSERVATIONS NORTHEAST NORTH DAKOTA  *****

CITY           SKY/WX    TMP DP  RH WIND       PRES   REMARKS
WALHALLA         N/A      5  -8  56 W12G18    30.38S WCI -11
LANGDON        NOT AVBL
CAVALIER       FAIR       7  -4  61 W7        30.40R WCI  -5
GRAFTON        NOT AVBL
CANDO          FAIR      -2  -9  71 SW6       30.37S WCI -14
FORT TOTTEN      N/A     -1 -10  64 SW6       29.95S WCI -13
ROLLA          FAIR       3  -4  72 S9        30.30F WCI -11
RUGBY          FAIR      -4  -9  77 SW8       30.35F WCI -19
 ***** THE ABOVE OBSERVATIONS ARE NON NWS ARE NOT QUALITY
        CONTROLLED AND MAY MIS-REPORT RAIN FOR SNOW...
$$

 *****  OTHER OBSERVATIONS SOUTHEAST NORTH DAKOTA *****

CITY           SKY/WX    TMP DP  RH WIND       PRES   REMARKS
COOPERSTOWN    NOT AVBL
VALLEY CITY    FLURRIES   0  -4  85 W7        30.42F WCI -13
OAKES            N/A      1  -4  78 S8        30.46F WCI -12
GWINNER        SUNNY      1  -6  71 SW12      30.48F WCI -15
SHEYENNE NWR     N/A      4  -7  60 W7        29.95S WCI  -8
BUFFALO        NOT AVBL
WYNDMERE       NOT AVBL
 ***** THE ABOVE OBSERVATIONS ARE NON NWS ARE NOT QUALITY
       CONTROLLED AND MAY MIS-REPORT RAIN FOR SNOW...
$$

  *****  WEATHER ACROSS NORTHERN MINNESOTA  *****

CITY           SKY/WX    TMP DP  RH WIND       PRES   REMARKS
FLAG ISLAND    MOSUNNY   -8 -15  71 SE7       30.33S WCI -22
WARROAD        SUNNY      0  -9  65 SW12      30.36S WCI -18
ROSEAU         SUNNY     -2  -9  71 SW9       30.37F WCI -18
HALLOCK        NOT AVBL
THF RVR FALLS  SUNNY     -6 -13  71 SW8       30.42R WCI -21
HALSTAD        NOT AVBL
FOSSTON        SUNNY     -2  -8  78 SW12      30.42S WCI -20
BAUDETTE       SUNNY     -2  -9  72 CALM      30.34F
WASKISH        SUNNY      0  -8  71 W6        30.39S WCI -12
CROOKSTON      SUNNY      0  -8  71 SW7       30.46S WCI -13
$$
  *****  WEATHER ACROSS CENTRAL AND WEST MINNESOTA  *****

CITY           SKY/WX    TMP DP  RH WIND       PRES   REMARKS
BEMIDJI        SUNNY      2  -5  70 SW5       30.39S WCI  -7
PARK RAPIDS    SUNNY      3  -4  72 W5        30.41F WCI  -6
WADENA         SUNNY      0  -6  78 SW8       30.44S WCI -15
DETROIT LAKES  SUNNY      1  -4  78 SW6       30.44S WCI -10
MOORHEAD       SUNNY      1  -6  71 SW7       30.50S WCI -11
FERGUS FALLS   SUNNY      0  -8  71 W6        30.53S WCI -12
ELBOW LAKE     FAIR      -3  -7  84 W5        30.49S WCI -14
MORRIS MN      SUNNY      3  -8  60 W6        30.51R WCI  -8
STAPLES        SUNNY      0  -4  85 CALM      30.45S
WHEATON        SUNNY      1  -8  66 SW3       30.54S
$$
  *****  WEATHER ELSEWHERE ACROSS MINNESOTA  *****

CITY           SKY/WX    TMP DP  RH WIND       PRES   REMARKS
DULUTH         SUNNY      5  -8  55 W12       30.39S WCI -11
INTRNTL FALLS  SUNNY      0  -9  65 W7        30.37S WCI -13
ELY            SUNNY      1  -9  60 W6        30.35F WCI -10
CLOQUET        SUNNY      3  -8  60 W6        30.42R WCI  -8
BRAINERD       SUNNY      1  -6  72 SW6       30.46S WCI -10
HIBBING        SUNNY      4  -7  60 VRB3      30.39S
ALEXANDRIA     SUNNY     24  -6  26 SW8       30.47S WCI  15
SAINT CLOUD    SUNNY      4  -5  66 SW8       30.51S WCI  -9
MINNEAPOLIS    SUNNY      4  -5  66 SW6       30.56S WCI  -7
$$

  *****  WEATHER ACROSS SOUTH DAKOTA  *****

CITY           SKY/WX    TMP DP  RH WIND       PRES   REMARKS
SIOUX FALLS    SUNNY      3  -5  69 W5        30.54S WCI  -6
BROOKINGS      NOT AVBL
WATERTOWN      SUNNY     -1  -6  79 SW6       30.46S WCI -13
HURON          SUNNY      1  -6  72 CALM      30.53S
SISSETON         N/A      6  -5  60 NW6       30.49S WCI  -4
ABERDEEN       SUNNY     -3 -11  68 S6        30.50F WCI -15
MITCHELL       SUNNY      9  -1  64 SW3       30.54F
PIERRE         SUNNY      9   2  73 SE6       30.42F WCI  -1
MOBRIDGE       SUNNY      2  -4  76 SE8       30.37F WCI -12
RAPID CITY     SUNNY      8   0  69 S16       30.19F WCI -10
$$

  *****  SOME WEATHER IN NEARBY STATES *****

CITY           SKY/WX    TMP DP  RH WIND       PRES   REMARKS
GLASGOW MT     SUNNY      5  -4  66 SE16      30.10F WCI -14
GREAT FALLS MT CLOUDY    10   5  80 W3        29.97R
CHEYENNE WY    CLOUDY     5   1  83 S13       29.94F FOG     WCI -12
SCOTTSBLUFF NE CLOUDY    11   4  73 SE15      30.16F WCI  -5
OMAHA NE       SUNNY      6  -1  73 NW5       30.64S WCI  -3
DES MOINES IA  MOSUNNY    4  -6  63 NW5       30.64S WCI  -5
DAVENPORT IA   SUNNY     -6 -13  71 W8        30.65R WCI -21
CHICAGO IL     SUNNY      9  -5  53 W8        30.58R WCI  -3
EAU CLAIRE WI  SUNNY      1  -9  62 SW8       30.54S WCI -13
LA CROSSE WI   SUNNY      1  -8  66 S5        30.60S WCI  -9
$$

  *****  SOME NATIONAL WEATHER *****

CITY           SKY/WX    TMP DP  RH WIND       PRES   REMARKS
LA GUARDIA NY  PTSUNNY   22   6  50 N8        30.40S WCI  12
RALEIGH NC     PTSUNNY   40  25  55 VRB5      30.38R
ATLANTA GA     MOSUNNY   39  27  62 NW10      30.39R
NEW ORLEANS LA PTSUNNY   43  32  65 NE18      30.41R
OKLAHOMA CITY  CLOUDY    19   2  47 NE8       30.55S WCI   9
ALBUQUERQUE NM CLOUDY    24  18  77 W7        30.01R WCI  16
SALT LAKE CITY CLOUDY    34  23  64 SE8       29.83S
LOS ANGELES CA PTSUNNY   56  52  86 E7        29.85R
BOISE ID       CLOUDY    39  32  76 SE10      29.78S
SEATTLE WA     LGT RAIN  47  44  90 E5        29.73R
$$

*** WEATHER ACROSS MANITOBA...SASKATCHEWAN AND ONTARIO ***
                ***ONTARIO***

CITY           SKY/WX    TMP DP  RH WIND       PRES   REMARKS
GERALDTON      MOSUNNY    5  -9  51 SW10      30.19S WCI -10
THUNDER BAY    MOSUNNY    3  -9  55 SW10      30.37F WCI -12
SIOUX LOOKOUT  PTSUNNY    0 -11  60 SW6       30.25F WCI -12
TORONTO        MOSUNNY   10  -2  56 W12       30.48R WCI  -4
BIG TROUT LK   SUNNY      5  -8  56 W14G23    29.94R WCI -12
PICKLE LAKE    PTSUNNY    5 -11  47 W10G17    30.10F WCI -10
DRYDEN         SUNNY      0 -11  60 SW12      30.27S WCI -18
KENORA         MOSUNNY   -4 -13  65 SW8       30.29S WCI -19
$$
                *** MANITOBA***

CITY           SKY/WX    TMP DP  RH WIND       PRES   REMARKS
BRANDON        CLOUDY   -11 -18  70 W8        30.33S WCI -28
DAUPHIN        SUNNY      3  -6  66 W13       30.25F WCI -14
ISLAND LAKE    MOSUNNY    3  -9  55 W10       30.03F WCI -12
PILOT MOUND      N/A     -9 -17  70 SW7         N/A  WCI -24
THE PAS        PTSUNNY    0  -9  65 W10       30.14R WCI -17
THOMPSON       FLURRIES   9   0  66 NW8G20    29.99R WCI  -4
WINNIPEG       MOSUNNY   -2 -13  60 W10       30.36S WCI -19
LYNN LAKE      LGT SNOW   5   0  78 NW12G20   30.01R WCI -11
CHURCHILL      LGT SNOW   1  -4  78 N12G17    29.88R DRFTSNOWWCI -15
GILLAM         CLOUDY     7   1  78 W7        29.92R WCI  -5
$$
                ***SASKATCHEWAN***

CITY           SKY/WX    TMP DP  RH WIND       PRES   REMARKS
ESTEVAN        NOT AVBL
KINDERSLEY     PTSUNNY   -4  -9  77 S2        30.09R
LLOYDMINSTER   LGT SNOW   1  -4  78 NW6       30.11R WCI -10
PRINCE ALBERT  CLOUDY   -17 -20  83 VRB2      30.17R
REGINA         PTSUNNY  -11 -15  84 SE10      30.18F WCI -30


USA.gov is the U.S. government's official web portal to all federal, state and local government web resources and services.